Time,TemperatureF,DewpointF,PressureIn,WindDirection,WindDirectionDegrees,WindSpeedMPH,WindSpeedGustMPH,Humidity,HourlyPrecipIn,Conditions,Clouds,dailyrainin,SoftwareType,DateUTC
2013-02-08 00:00:00,54.6,49.5,29.84,ENE,72,6.0,23.0,83,0.37,,SKC,2.00,VWS V13.00,2013-02-08 05:00:00,
2013-02-08 00:01:00,54.6,49.5,29.84,ENE,59,4.0,23.0,83,0.37,,SKC,2.00,VWS V13.00,2013-02-08 05:01:00,
2013-02-08 00:06:00,54.6,49.5,29.84,NE,50,23.0,27.0,83,0.36,,SKC,0.01,VWS V13.00,2013-02-08 05:06:00,
2013-02-08 00:11:00,54.6,49.5,29.84,ENE,61,8.0,33.0,83,0.33,,SKC,0.02,VWS V13.00,2013-02-08 05:11:00,
2013-02-08 00:16:00,54.6,49.5,29.83,NE,44,5.0,18.0,83,0.31,,SKC,0.03,VWS V13.00,2013-02-08 05:16:00,
2013-02-08 00:21:00,54.6,49.5,29.82,ENE,65,3.0,27.0,83,0.29,,SKC,0.03,VWS V13.00,2013-02-08 05:21:00,
2013-02-08 00:26:00,54.4,49.3,29.82,North,350,11.0,23.0,83,0.27,,SKC,0.03,VWS V13.00,2013-02-08 05:26:00,
2013-02-08 00:31:00,54.2,49.2,29.81,ENE,66,10.0,21.0,83,0.26,,SKC,0.03,VWS V13.00,2013-02-08 05:31:00,
2013-02-08 00:36:00,54.2,49.2,29.80,NNE,31,8.0,18.0,83,0.25,,SKC,0.03,VWS V13.00,2013-02-08 05:36:00,
2013-02-08 00:41:00,54.2,49.2,29.80,ENE,59,8.0,21.0,83,0.24,,SKC,0.04,VWS V13.00,2013-02-08 05:41:00,
2013-02-08 00:46:00,54.3,49.3,29.79,NE,35,11.0,18.0,83,0.22,,SKC,0.04,VWS V13.00,2013-02-08 05:46:00,
2013-02-08 00:51:00,54.5,49.5,29.78,ENE,65,12.0,19.0,83,0.12,,SKC,0.04,VWS V13.00,2013-02-08 05:51:00,
2013-02-08 00:56:00,54.5,49.5,29.78,ENE,65,11.0,18.0,83,0.08,,SKC,0.04,VWS V13.00,2013-02-08 05:56:00,
2013-02-08 01:01:00,54.6,49.5,29.77,ENE,64,13.0,19.0,83,0.07,,SKC,0.05,VWS V13.00,2013-02-08 06:01:00,
2013-02-08 01:06:00,54.7,49.7,29.76,ENE,70,5.0,16.0,83,0.06,,SKC,0.06,VWS V13.00,2013-02-08 06:06:00,
2013-02-08 01:11:00,54.7,49.7,29.75,NNE,16,10.0,13.0,83,0.04,,SKC,0.06,VWS V13.00,2013-02-08 06:11:00,
2013-02-08 01:16:00,54.7,49.7,29.75,ENE,76,4.0,14.0,83,0.06,,SKC,0.08,VWS V13.00,2013-02-08 06:16:00,
2013-02-08 01:21:00,54.8,49.7,29.74,NNE,33,11.0,14.0,83,0.05,,SKC,0.08,VWS V13.00,2013-02-08 06:21:00,
2013-02-08 01:26:00,54.8,49.7,29.74,NNW,339,7.0,14.0,83,0.06,,SKC,0.09,VWS V13.00,2013-02-08 06:26:00,
2013-02-08 01:31:00,54.8,49.7,29.74,North,355,7.0,14.0,83,0.07,,SKC,0.10,VWS V13.00,2013-02-08 06:31:00,
2013-02-08 01:36:00,54.7,49.7,29.73,NE,51,4.0,12.0,83,0.09,,SKC,0.12,VWS V13.00,2013-02-08 06:36:00,
2013-02-08 01:41:00,54.8,49.7,29.73,ENE,61,4.0,18.0,83,0.10,,SKC,0.13,VWS V13.00,2013-02-08 06:41:00,
2013-02-08 01:46:00,54.9,49.8,29.71,ENE,57,7.0,15.0,83,0.10,,SKC,0.15,VWS V13.00,2013-02-08 06:46:00,
2013-02-08 01:51:00,55.1,50.0,29.71,ENE,57,1.0,19.0,83,0.12,,SKC,0.16,VWS V13.00,2013-02-08 06:51:00,
2013-02-08 01:56:00,55.2,50.1,29.71,NNE,21,5.0,12.0,83,0.15,,SKC,0.19,VWS V13.00,2013-02-08 06:56:00,
2013-02-08 02:01:00,55.3,50.2,29.69,East,79,5.0,17.0,83,0.19,,SKC,0.23,VWS V13.00,2013-02-08 07:01:00,
2013-02-08 02:06:00,55.4,50.3,29.68,NE,35,5.0,14.0,83,0.20,,SKC,0.25,VWS V13.00,2013-02-08 07:06:00,
2013-02-08 02:11:00,55.4,50.3,29.68,ENE,67,5.0,13.0,83,0.21,,SKC,0.27,VWS V13.00,2013-02-08 07:11:00,
2013-02-08 02:16:00,55.5,50.4,29.67,NE,43,7.0,13.0,83,0.24,,SKC,0.30,VWS V13.00,2013-02-08 07:16:00,
2013-02-08 02:21:00,55.7,50.6,29.67,NE,53,8.0,11.0,83,0.24,,SKC,0.32,VWS V13.00,2013-02-08 07:21:00,
2013-02-08 02:26:00,55.9,50.8,29.67,ENE,69,2.0,13.0,83,0.28,,SKC,0.36,VWS V13.00,2013-02-08 07:26:00,
2013-02-08 02:31:00,56.2,51.1,29.66,ENE,59,10.0,14.0,83,0.29,,SKC,0.39,VWS V13.00,2013-02-08 07:31:00,
2013-02-08 02:36:00,56.4,51.3,29.66,NE,42,7.0,11.0,83,0.32,,SKC,0.42,VWS V13.00,2013-02-08 07:36:00,
2013-02-08 02:41:00,56.4,51.3,29.64,East,82,3.0,10.0,83,0.32,,SKC,0.45,VWS V13.00,2013-02-08 07:41:00,
2013-02-08 02:46:00,56.5,51.4,29.64,East,84,5.0,8.0,83,0.32,,SKC,0.46,VWS V13.00,2013-02-08 07:46:00,
2013-02-08 02:51:00,57.2,52.1,29.63,East,94,7.0,11.0,83,0.32,,SKC,0.48,VWS V13.00,2013-02-08 07:51:00,
2013-02-08 02:56:00,57.6,52.5,29.62,East,93,8.0,13.0,83,0.33,,SKC,0.49,VWS V13.00,2013-02-08 07:56:00,
2013-02-08 03:01:00,57.6,52.8,29.60,ESE,119,5.0,12.0,84,0.31,,SKC,0.51,VWS V13.00,2013-02-08 08:01:00,
2013-02-08 03:06:00,57.7,52.9,29.59,East,97,6.0,11.0,84,0.30,,SKC,0.53,VWS V13.00,2013-02-08 08:06:00,
2013-02-08 03:11:00,57.9,52.8,29.57,East,80,8.0,12.0,83,0.30,,SKC,0.55,VWS V13.00,2013-02-08 08:11:00,
2013-02-08 03:16:00,58.0,53.2,29.57,East,90,7.0,14.0,84,0.28,,SKC,0.56,VWS V13.00,2013-02-08 08:16:00,
2013-02-08 03:21:00,58.4,53.6,29.57,ENE,67,5.0,13.0,84,0.26,,SKC,0.56,VWS V13.00,2013-02-08 08:21:00,
2013-02-08 03:26:00,58.5,53.7,29.56,ENE,73,6.0,12.0,84,0.24,,SKC,0.57,VWS V13.00,2013-02-08 08:26:00,
2013-02-08 03:31:00,58.3,53.5,29.56,ESE,114,7.0,13.0,84,0.21,,SKC,0.57,VWS V13.00,2013-02-08 08:31:00,
2013-02-08 03:36:00,58.1,53.0,29.56,ESE,113,7.0,16.0,83,0.17,,SKC,0.57,VWS V13.00,2013-02-08 08:36:00,
2013-02-08 03:41:00,58.0,53.2,29.56,East,92,12.0,18.0,84,0.15,,SKC,0.57,VWS V13.00,2013-02-08 08:41:00,
2013-02-08 03:46:00,58.0,53.2,29.55,East,87,4.0,14.0,84,0.13,,SKC,0.58,VWS V13.00,2013-02-08 08:46:00,
2013-02-08 03:51:00,58.0,53.2,29.55,East,98,9.0,14.0,84,0.12,,SKC,0.58,VWS V13.00,2013-02-08 08:51:00,
2013-02-08 03:56:00,58.0,53.2,29.53,ESE,105,8.0,11.0,84,0.11,,SKC,0.59,VWS V13.00,2013-02-08 08:56:00,
2013-02-08 04:01:00,58.0,53.2,29.52,East,81,5.0,11.0,84,0.10,,SKC,0.59,VWS V13.00,2013-02-08 09:01:00,
2013-02-08 04:06:00,58.0,53.2,29.51,East,92,5.0,10.0,84,0.09,,SKC,0.60,VWS V13.00,2013-02-08 09:06:00,
2013-02-08 04:11:00,58.0,53.2,29.51,East,84,4.0,9.0,84,0.06,,SKC,0.60,VWS V13.00,2013-02-08 09:11:00,
2013-02-08 04:16:00,57.9,53.1,29.51,ESE,104,4.0,11.0,84,0.05,,SKC,0.60,VWS V13.00,2013-02-08 09:16:00,
2013-02-08 04:21:00,57.6,52.8,29.51,East,96,6.0,7.0,84,0.04,,SKC,0.60,VWS V13.00,2013-02-08 09:21:00,
2013-02-08 04:26:00,57.5,52.7,29.51,East,90,0.0,6.0,84,0.04,,SKC,0.60,VWS V13.00,2013-02-08 09:26:00,
2013-02-08 04:31:00,57.6,52.8,29.50,ESE,123,5.0,6.0,84,0.03,,SKC,0.60,VWS V13.00,2013-02-08 09:31:00,
2013-02-08 04:36:00,57.7,52.9,29.50,East,97,4.0,7.0,84,0.03,,SKC,0.60,VWS V13.00,2013-02-08 09:36:00,
2013-02-08 04:41:00,57.7,52.9,29.50,ESE,109,2.0,5.0,84,0.03,,SKC,0.60,VWS V13.00,2013-02-08 09:41:00,
2013-02-08 04:46:00,57.7,52.9,29.49,ESE,121,1.0,6.0,84,0.03,,SKC,0.60,VWS V13.00,2013-02-08 09:46:00,
2013-02-08 04:51:00,57.5,52.7,29.49,ESE,112,2.0,7.0,84,0.02,,SKC,0.60,VWS V13.00,2013-02-08 09:51:00,
2013-02-08 04:56:00,57.5,52.7,29.49,SE,140,7.0,8.0,84,0.01,,SKC,0.60,VWS V13.00,2013-02-08 09:56:00,
2013-02-08 05:01:00,57.7,52.9,29.49,SSE,165,10.0,10.0,84,0.01,,SKC,0.60,VWS V13.00,2013-02-08 10:01:00,
2013-02-08 05:06:00,58.1,53.3,29.49,SSW,203,20.0,20.0,84,0.01,,SKC,0.60,VWS V13.00,2013-02-08 10:06:00,
2013-02-08 05:11:00,58.3,53.5,29.49,WNW,287,4.0,24.0,84,0.00,,SKC,0.60,VWS V13.00,2013-02-08 10:11:00,
2013-02-08 05:16:00,57.6,52.8,29.49,NW,321,11.0,19.0,84,0.00,,SKC,0.60,VWS V13.00,2013-02-08 10:16:00,
2013-02-08 05:21:00,56.5,51.7,29.50,West,275,6.0,14.0,84,0.00,,SKC,0.60,VWS V13.00,2013-02-08 10:21:00,
2013-02-08 05:26:00,55.7,51.0,29.50,NW,309,4.0,17.0,84,0.00,,SKC,0.60,VWS V13.00,2013-02-08 10:26:00,
2013-02-08 05:31:00,55.0,50.3,29.50,NNW,333,8.0,19.0,84,0.00,,SKC,0.60,VWS V13.00,2013-02-08 10:31:00,
2013-02-08 05:36:00,54.5,49.8,29.50,NW,313,11.0,22.0,84,0.00,,SKC,0.60,VWS V13.00,2013-02-08 10:36:00,
2013-02-08 05:41:00,54.1,49.7,29.50,NNW,331,6.0,18.0,85,0.00,,SKC,0.60,VWS V13.00,2013-02-08 10:41:00,
2013-02-08 05:46:00,53.8,49.1,29.51,WNW,302,5.0,15.0,84,0.00,,SKC,0.60,VWS V13.00,2013-02-08 10:46:00,
2013-02-08 05:51:00,53.3,48.9,29.51,WNW,293,7.0,22.0,85,0.00,,SKC,0.60,VWS V13.00,2013-02-08 10:51:00,
2013-02-08 05:56:00,52.6,48.2,29.51,North,10,9.0,22.0,85,0.00,,SKC,0.60,VWS V13.00,2013-02-08 10:56:00,
2013-02-08 06:01:00,51.8,47.4,29.53,NW,321,8.0,19.0,85,0.00,,SKC,0.60,VWS V13.00,2013-02-08 11:01:00,
2013-02-08 06:06:00,51.2,46.8,29.54,NNW,336,11.0,22.0,85,0.00,,SKC,0.60,VWS V13.00,2013-02-08 11:06:00,
2013-02-08 06:11:00,50.7,46.4,29.55,WSW,257,5.0,18.0,85,0.00,,SKC,0.60,VWS V13.00,2013-02-08 11:11:00,
2013-02-08 06:16:00,50.2,45.9,29.55,WNW,303,17.0,25.0,85,0.00,,SKC,0.60,VWS V13.00,2013-02-08 11:16:00,
2013-02-08 06:21:00,49.3,45.0,29.56,West,259,10.0,22.0,85,0.00,,SKC,0.60,VWS V13.00,2013-02-08 11:21:00,
2013-02-08 06:26:00,48.6,44.3,29.57,NNW,336,10.0,21.0,85,0.00,,SKC,0.60,VWS V13.00,2013-02-08 11:26:00,
2013-02-08 06:31:00,48.1,43.8,29.57,WNW,303,14.0,22.0,85,0.00,,SKC,0.60,VWS V13.00,2013-02-08 11:31:00,
2013-02-08 06:36:00,47.7,43.4,29.58,NW,326,11.0,21.0,85,0.00,,SKC,0.60,VWS V13.00,2013-02-08 11:36:00,
2013-02-08 06:41:00,47.4,43.1,29.59,NW,309,7.0,18.0,85,0.00,,SKC,0.60,VWS V13.00,2013-02-08 11:41:00,
2013-02-08 06:46:00,47.0,42.7,29.59,NW,306,8.0,21.0,85,0.00,,SKC,0.60,VWS V13.00,2013-02-08 11:46:00,
2013-02-08 06:51:00,46.9,42.6,29.59,West,271,5.0,21.0,85,0.00,,SKC,0.60,VWS V13.00,2013-02-08 11:51:00,
2013-02-08 06:56:00,46.7,42.4,29.60,West,279,21.0,23.0,85,0.00,,SKC,0.60,VWS V13.00,2013-02-08 11:56:00,
2013-02-08 07:01:00,46.6,42.3,29.60,WNW,297,21.0,23.0,85,0.00,,SKC,0.60,VWS V13.00,2013-02-08 12:01:00,
2013-02-08 07:06:00,46.4,42.1,29.61,NNW,331,5.0,22.0,85,0.00,,SKC,0.60,VWS V13.00,2013-02-08 12:06:00,
2013-02-08 07:11:00,46.3,42.0,29.61,NW,321,8.0,23.0,85,0.00,,SKC,0.60,VWS V13.00,2013-02-08 12:11:00,
2013-02-08 07:16:00,46.2,42.0,29.62,NW,322,5.0,25.0,85,0.00,,SKC,0.60,VWS V13.00,2013-02-08 12:16:00,
2013-02-08 07:21:00,46.1,41.8,29.63,NW,325,6.0,22.0,85,0.00,,SKC,0.60,VWS V13.00,2013-02-08 12:21:00,
2013-02-08 07:26:00,46.1,41.8,29.63,WNW,300,9.0,25.0,85,0.00,,SKC,0.60,VWS V13.00,2013-02-08 12:26:00,
2013-02-08 07:31:00,46.0,41.8,29.63,NNW,330,13.0,28.0,85,0.00,,SKC,0.60,VWS V13.00,2013-02-08 12:31:00,
2013-02-08 07:36:00,45.9,41.7,29.64,WNW,290,14.0,25.0,85,0.00,,SKC,0.60,VWS V13.00,2013-02-08 12:36:00,
2013-02-08 07:41:00,45.9,41.7,29.64,WNW,284,11.0,26.0,85,0.00,,SKC,0.60,VWS V13.00,2013-02-08 12:41:00,
2013-02-08 07:46:00,46.0,41.8,29.65,WNW,298,20.0,22.0,85,0.00,,SKC,0.60,VWS V13.00,2013-02-08 12:46:00,
2013-02-08 07:51:00,46.1,41.8,29.65,NW,311,20.0,26.0,85,0.00,,SKC,0.60,VWS V13.00,2013-02-08 12:51:00,
2013-02-08 07:56:00,46.1,41.8,29.65,NW,319,11.0,26.0,85,0.00,,SKC,0.60,VWS V13.00,2013-02-08 12:56:00,
2013-02-08 08:01:00,46.1,41.8,29.66,NNW,334,13.0,23.0,85,0.00,,SKC,0.60,VWS V13.00,2013-02-08 13:01:00,
2013-02-08 08:06:00,46.1,41.8,29.66,NNW,338,19.0,25.0,85,0.00,,SKC,0.60,VWS V13.00,2013-02-08 13:06:00,
2013-02-08 08:11:00,46.1,41.8,29.66,West,276,14.0,26.0,85,0.00,,SKC,0.60,VWS V13.00,2013-02-08 13:11:00,
2013-02-08 08:16:00,46.1,41.8,29.67,NNW,327,11.0,28.0,85,0.00,,SKC,0.60,VWS V13.00,2013-02-08 13:16:00,
2013-02-08 08:21:00,46.1,41.8,29.68,WNW,299,11.0,23.0,85,0.00,,SKC,0.60,VWS V13.00,2013-02-08 13:21:00,
2013-02-08 08:26:00,46.1,41.8,29.68,NW,309,12.0,20.0,85,0.00,,SKC,0.60,VWS V13.00,2013-02-08 13:26:00,
2013-02-08 08:31:00,46.1,41.8,29.69,NW,306,15.0,21.0,85,0.00,,SKC,0.60,VWS V13.00,2013-02-08 13:31:00,
2013-02-08 08:36:00,46.1,41.8,29.69,WNW,301,12.0,23.0,85,0.00,,SKC,0.60,VWS V13.00,2013-02-08 13:36:00,
2013-02-08 08:41:00,46.1,41.8,29.69,NW,317,10.0,27.0,85,0.00,,SKC,0.60,VWS V13.00,2013-02-08 13:41:00,
2013-02-08 08:46:00,46.2,42.0,29.69,NW,323,15.0,25.0,85,0.00,,SKC,0.60,VWS V13.00,2013-02-08 13:46:00,
2013-02-08 08:51:00,46.4,42.1,29.69,NNW,346,14.0,26.0,85,0.00,,SKC,0.60,VWS V13.00,2013-02-08 13:51:00,
2013-02-08 08:56:00,46.5,42.2,29.69,NW,316,6.0,21.0,85,0.00,,SKC,0.60,VWS V13.00,2013-02-08 13:56:00,
2013-02-08 09:01:00,46.7,42.4,29.69,NNW,329,12.0,19.0,85,0.00,,SKC,0.60,VWS V13.00,2013-02-08 14:01:00,
2013-02-08 09:06:00,46.9,42.6,29.69,NW,315,16.0,25.0,85,0.00,,SKC,0.60,VWS V13.00,2013-02-08 14:06:00,
2013-02-08 09:11:00,47.3,43.0,29.70,NW,309,8.0,22.0,85,0.00,,SKC,0.60,VWS V13.00,2013-02-08 14:11:00,
2013-02-08 09:16:00,47.6,43.3,29.70,NW,309,12.0,25.0,85,0.00,,SKC,0.60,VWS V13.00,2013-02-08 14:16:00,
2013-02-08 09:21:00,48.0,43.7,29.70,NNW,344,8.0,19.0,85,0.00,,SKC,0.60,VWS V13.00,2013-02-08 14:21:00,
2013-02-08 09:26:00,48.3,44.0,29.71,NW,304,21.0,21.0,85,0.00,,SKC,0.60,VWS V13.00,2013-02-08 14:26:00,
2013-02-08 09:31:00,48.5,44.2,29.72,NNW,330,13.0,22.0,85,0.00,,SKC,0.60,VWS V13.00,2013-02-08 14:31:00,
2013-02-08 09:36:00,48.6,44.3,29.72,NNW,327,20.0,23.0,85,0.00,,SKC,0.60,VWS V13.00,2013-02-08 14:36:00,
2013-02-08 09:41:00,49.1,44.8,29.72,NNW,330,10.0,22.0,85,0.00,,SKC,0.60,VWS V13.00,2013-02-08 14:41:00,
2013-02-08 09:46:00,49.9,45.6,29.72,NW,304,6.0,20.0,85,0.00,,SKC,0.60,VWS V13.00,2013-02-08 14:46:00,
2013-02-08 09:51:00,50.5,46.2,29.72,North,351,7.0,24.0,85,0.00,,SKC,0.60,VWS V13.00,2013-02-08 14:51:00,
2013-02-08 09:56:00,50.8,46.5,29.73,NW,316,11.0,19.0,85,0.00,,SKC,0.60,VWS V13.00,2013-02-08 14:56:00,
2013-02-08 10:01:00,51.3,47.0,29.73,WNW,302,14.0,23.0,85,0.00,,SKC,0.60,VWS V13.00,2013-02-08 15:01:00,
2013-02-08 10:06:00,51.5,47.2,29.74,NW,319,7.0,18.0,85,0.00,,SKC,0.60,VWS V13.00,2013-02-08 15:06:00,
2013-02-08 10:11:00,51.9,47.5,29.74,North,355,8.0,18.0,85,0.00,,SKC,0.60,VWS V13.00,2013-02-08 15:11:00,
2013-02-08 10:16:00,52.2,47.8,29.75,NW,313,6.0,14.0,85,0.00,,SKC,0.60,VWS V13.00,2013-02-08 15:16:00,
2013-02-08 10:21:00,52.6,48.2,29.75,WNW,286,2.0,21.0,85,0.00,,SKC,0.60,VWS V13.00,2013-02-08 15:21:00,
2013-02-08 10:26:00,52.9,48.5,29.75,NW,310,11.0,22.0,85,0.00,,SKC,0.60,VWS V13.00,2013-02-08 15:26:00,
2013-02-08 10:31:00,53.2,48.5,29.76,NW,309,9.0,13.0,84,0.00,,SKC,0.60,VWS V13.00,2013-02-08 15:31:00,
2013-02-08 10:36:00,53.6,49.2,29.76,WNW,282,13.0,16.0,85,0.00,,SKC,0.60,VWS V13.00,2013-02-08 15:36:00,
2013-02-08 10:41:00,53.9,49.2,29.76,NW,320,9.0,21.0,84,0.00,,SKC,0.60,VWS V13.00,2013-02-08 15:41:00,
2013-02-08 10:46:00,54.1,49.4,29.77,WNW,298,10.0,16.0,84,0.00,,SKC,0.60,VWS V13.00,2013-02-08 15:46:00,
2013-02-08 10:51:00,53.9,49.2,29.77,WNW,293,9.0,25.0,84,0.00,,SKC,0.60,VWS V13.00,2013-02-08 15:51:00,
2013-02-08 10:56:00,53.9,49.2,29.77,WNW,296,6.0,17.0,84,0.00,,SKC,0.60,VWS V13.00,2013-02-08 15:56:00,
2013-02-08 11:01:00,54.0,49.3,29.77,NW,306,11.0,20.0,84,0.00,,SKC,0.60,VWS V13.00,2013-02-08 16:01:00,
2013-02-08 11:06:00,53.8,49.1,29.78,NW,308,5.0,17.0,84,0.00,,SKC,0.60,VWS V13.00,2013-02-08 16:06:00,
2013-02-08 11:11:00,53.8,49.1,29.78,NW,319,12.0,17.0,84,0.00,,SKC,0.60,VWS V13.00,2013-02-08 16:11:00,
2013-02-08 11:16:00,53.9,49.2,29.78,NW,313,6.0,16.0,84,0.00,,SKC,0.60,VWS V13.00,2013-02-08 16:16:00,
2013-02-08 11:21:00,53.7,49.0,29.79,WNW,292,8.0,19.0,84,0.00,,SKC,0.60,VWS V13.00,2013-02-08 16:21:00,
2013-02-08 11:26:00,53.6,48.9,29.79,NNW,330,18.0,21.0,84,0.00,,SKC,0.60,VWS V13.00,2013-02-08 16:26:00,
2013-02-08 11:31:00,53.5,48.8,29.79,NNW,331,14.0,19.0,84,0.00,,SKC,0.60,VWS V13.00,2013-02-08 16:31:00,
2013-02-08 11:36:00,53.3,48.6,29.79,WNW,298,10.0,19.0,84,0.00,,SKC,0.60,VWS V13.00,2013-02-08 16:36:00,
2013-02-08 11:41:00,53.2,48.5,29.80,West,259,7.0,16.0,84,0.00,,SKC,0.60,VWS V13.00,2013-02-08 16:41:00,
2013-02-08 11:46:00,53.0,48.3,29.80,NW,316,14.0,21.0,84,0.00,,SKC,0.60,VWS V13.00,2013-02-08 16:46:00,
2013-02-08 11:51:00,52.8,48.1,29.80,WNW,301,15.0,16.0,84,0.00,,SKC,0.60,VWS V13.00,2013-02-08 16:51:00,
2013-02-08 11:56:00,52.8,48.1,29.80,NW,311,12.0,16.0,84,0.00,,SKC,0.60,VWS V13.00,2013-02-08 16:56:00,
2013-02-08 12:01:00,53.1,48.4,29.80,NNW,330,7.0,18.0,84,0.00,,SKC,0.60,VWS V13.00,2013-02-08 17:01:00,
2013-02-08 12:06:00,53.3,48.6,29.79,NW,309,10.0,17.0,84,0.00,,SKC,0.60,VWS V13.00,2013-02-08 17:06:00,
2013-02-08 12:11:00,53.1,48.4,29.80,West,281,11.0,16.0,84,0.00,,SKC,0.60,VWS V13.00,2013-02-08 17:11:00,
2013-02-08 12:16:00,52.8,47.8,29.80,NW,307,8.0,17.0,83,0.00,,SKC,0.60,VWS V13.00,2013-02-08 17:16:00,
2013-02-08 12:21:00,53.0,48.3,29.80,NW,307,3.0,18.0,84,0.00,,SKC,0.60,VWS V13.00,2013-02-08 17:21:00,
2013-02-08 12:26:00,52.7,47.7,29.80,WNW,302,2.0,23.0,83,0.00,,SKC,0.60,VWS V13.00,2013-02-08 17:26:00,
2013-02-08 12:31:00,52.3,47.6,29.80,WNW,300,7.0,18.0,84,0.00,,SKC,0.60,VWS V13.00,2013-02-08 17:31:00,
2013-02-08 12:36:00,52.3,47.6,29.80,NNW,333,15.0,17.0,84,0.00,,SKC,0.60,VWS V13.00,2013-02-08 17:36:00,
2013-02-08 12:41:00,52.3,47.6,29.80,NW,319,10.0,19.0,84,0.00,,SKC,0.60,VWS V13.00,2013-02-08 17:41:00,
2013-02-08 12:46:00,52.6,47.6,29.80,NNW,344,14.0,20.0,83,0.00,,SKC,0.60,VWS V13.00,2013-02-08 17:46:00,
2013-02-08 12:51:00,52.6,47.6,29.80,WNW,295,6.0,17.0,83,0.00,,SKC,0.60,VWS V13.00,2013-02-08 17:51:00,
2013-02-08 12:56:00,52.8,47.8,29.80,NW,304,12.0,18.0,83,0.00,,SKC,0.60,VWS V13.00,2013-02-08 17:56:00,
2013-02-08 13:01:00,52.9,47.9,29.80,West,269,10.0,20.0,83,0.00,,SKC,0.60,VWS V13.00,2013-02-08 18:01:00,
2013-02-08 13:06:00,53.0,48.0,29.80,WSW,249,6.0,16.0,83,0.00,,SKC,0.60,VWS V13.00,2013-02-08 18:06:00,
2013-02-08 13:11:00,53.0,48.0,29.79,NW,306,6.0,19.0,83,0.00,,SKC,0.60,VWS V13.00,2013-02-08 18:11:00,
2013-02-08 13:16:00,53.2,48.2,29.79,NW,318,22.0,22.0,83,0.00,,SKC,0.60,VWS V13.00,2013-02-08 18:16:00,
2013-02-08 13:21:00,53.1,48.1,29.80,West,271,12.0,18.0,83,0.00,,SKC,0.60,VWS V13.00,2013-02-08 18:21:00,
2013-02-08 13:26:00,53.0,48.0,29.80,West,276,4.0,18.0,83,0.00,,SKC,0.60,VWS V13.00,2013-02-08 18:26:00,
2013-02-08 13:31:00,53.3,48.3,29.80,WNW,284,12.0,16.0,83,0.00,,SKC,0.60,VWS V13.00,2013-02-08 18:31:00,
2013-02-08 13:36:00,53.1,48.1,29.80,WNW,289,8.0,19.0,83,0.00,,SKC,0.60,VWS V13.00,2013-02-08 18:36:00,
2013-02-08 13:41:00,52.6,47.6,29.80,NW,306,5.0,21.0,83,0.00,,SKC,0.60,VWS V13.00,2013-02-08 18:41:00,
2013-02-08 13:46:00,52.4,47.4,29.80,WSW,254,4.0,5.0,83,0.00,,SKC,0.60,VWS V13.00,2013-02-08 18:46:00,
2013-02-08 13:51:00,52.2,47.2,29.80,North,5,4.0,4.0,83,0.00,,SKC,0.60,VWS V13.00,2013-02-08 18:51:00,
2013-02-08 13:56:00,52.2,47.2,29.80,WNW,299,5.0,5.0,83,0.00,,SKC,0.60,VWS V13.00,2013-02-08 18:56:00,
2013-02-08 14:01:00,52.7,47.7,29.80,NW,306,6.0,9.0,83,0.00,,SKC,0.60,VWS V13.00,2013-02-08 19:01:00,
2013-02-08 14:06:00,53.2,48.2,29.81,West,269,11.0,11.0,83,0.00,,SKC,0.60,VWS V13.00,2013-02-08 19:06:00,
2013-02-08 14:11:00,53.5,48.5,29.81,NW,312,12.0,15.0,83,0.00,,SKC,0.60,VWS V13.00,2013-02-08 19:11:00,
2013-02-08 14:16:00,53.2,47.9,29.81,NNW,332,12.0,16.0,82,0.00,,SKC,0.60,VWS V13.00,2013-02-08 19:16:00,
2013-02-08 14:21:00,52.9,47.9,29.82,NNW,329,10.0,17.0,83,0.00,,SKC,0.60,VWS V13.00,2013-02-08 19:21:00,
2013-02-08 14:26:00,52.6,47.3,29.82,NW,314,15.0,16.0,82,0.00,,SKC,0.60,VWS V13.00,2013-02-08 19:26:00,
2013-02-08 14:31:00,52.1,47.1,29.82,NW,309,6.0,17.0,83,0.00,,SKC,0.60,VWS V13.00,2013-02-08 19:31:00,
2013-02-08 14:36:00,51.9,46.9,29.82,WNW,282,1.0,14.0,83,0.00,,SKC,0.60,VWS V13.00,2013-02-08 19:36:00,
2013-02-08 14:41:00,52.4,47.4,29.82,WNW,297,10.0,17.0,83,0.00,,SKC,0.60,VWS V13.00,2013-02-08 19:41:00,
2013-02-08 14:46:00,52.8,47.8,29.82,NW,309,4.0,15.0,83,0.00,,SKC,0.60,VWS V13.00,2013-02-08 19:46:00,
2013-02-08 14:51:00,53.0,47.7,29.83,NW,324,9.0,15.0,82,0.00,,SKC,0.60,VWS V13.00,2013-02-08 19:51:00,
2013-02-08 14:56:00,53.2,47.9,29.83,NNW,327,5.0,16.0,82,0.00,,SKC,0.60,VWS V13.00,2013-02-08 19:56:00,
2013-02-08 15:01:00,53.0,47.7,29.83,NW,323,7.0,15.0,82,0.00,,SKC,0.60,VWS V13.00,2013-02-08 20:01:00,
2013-02-08 15:06:00,52.8,47.5,29.83,NW,323,7.0,15.0,82,0.00,,SKC,0.60,VWS V13.00,2013-02-08 20:06:00,
2013-02-08 15:11:00,52.5,47.2,29.83,NW,311,12.0,19.0,82,0.00,,SKC,0.60,VWS V13.00,2013-02-08 20:11:00,
2013-02-08 15:16:00,52.2,46.9,29.82,NNW,330,7.0,17.0,82,0.00,,SKC,0.60,VWS V13.00,2013-02-08 20:16:00,
2013-02-08 15:21:00,52.3,47.0,29.83,WNW,289,5.0,14.0,82,0.00,,SKC,0.60,VWS V13.00,2013-02-08 20:21:00,
2013-02-08 15:26:00,52.6,47.3,29.83,WSW,257,11.0,13.0,82,0.00,,SKC,0.60,VWS V13.00,2013-02-08 20:26:00,
2013-02-08 15:31:00,52.7,47.4,29.83,WNW,285,9.0,11.0,82,0.00,,SKC,0.60,VWS V13.00,2013-02-08 20:31:00,
2013-02-08 15:36:00,52.7,47.4,29.83,WNW,295,2.0,13.0,82,0.00,,SKC,0.60,VWS V13.00,2013-02-08 20:36:00,
2013-02-08 15:41:00,52.8,47.5,29.83,NW,306,5.0,9.0,82,0.00,,SKC,0.60,VWS V13.00,2013-02-08 20:41:00,
2013-02-08 15:46:00,52.9,47.6,29.83,NW,323,5.0,14.0,82,0.00,,SKC,0.60,VWS V13.00,2013-02-08 20:46:00,
2013-02-08 15:51:00,52.8,47.5,29.83,West,265,6.0,14.0,82,0.00,,SKC,0.60,VWS V13.00,2013-02-08 20:51:00,
2013-02-08 15:56:00,52.7,47.4,29.83,NW,306,9.0,14.0,82,0.00,,SKC,0.60,VWS V13.00,2013-02-08 20:56:00,
2013-02-08 16:01:00,52.8,47.5,29.82,WNW,302,6.0,10.0,82,0.00,,SKC,0.60,VWS V13.00,2013-02-08 21:01:00,
2013-02-08 16:06:00,52.8,47.5,29.82,West,271,9.0,14.0,82,0.00,,SKC,0.60,VWS V13.00,2013-02-08 21:06:00,
2013-02-08 16:11:00,52.7,47.4,29.82,WNW,294,9.0,10.0,82,0.00,,SKC,0.60,VWS V13.00,2013-02-08 21:11:00,
2013-02-08 16:16:00,52.7,47.4,29.83,WSW,253,4.0,10.0,82,0.00,,SKC,0.60,VWS V13.00,2013-02-08 21:16:00,
2013-02-08 16:21:00,52.6,47.3,29.82,WSW,250,8.0,10.0,82,0.00,,SKC,0.60,VWS V13.00,2013-02-08 21:21:00,
2013-02-08 16:26:00,52.7,47.4,29.82,West,275,5.0,12.0,82,0.00,,SKC,0.60,VWS V13.00,2013-02-08 21:26:00,
2013-02-08 16:31:00,52.6,47.3,29.82,WNW,301,11.0,17.0,82,0.00,,SKC,0.60,VWS V13.00,2013-02-08 21:31:00,
2013-02-08 16:36:00,52.3,47.0,29.83,West,265,4.0,11.0,82,0.00,,SKC,0.60,VWS V13.00,2013-02-08 21:36:00,
2013-02-08 16:41:00,52.3,47.0,29.83,WNW,290,6.0,9.0,82,0.00,,SKC,0.60,VWS V13.00,2013-02-08 21:41:00,
2013-02-08 16:46:00,52.3,47.0,29.83,West,272,2.0,9.0,82,0.00,,SKC,0.60,VWS V13.00,2013-02-08 21:46:00,
2013-02-08 16:51:00,52.2,46.9,29.84,West,268,7.0,15.0,82,0.00,,SKC,0.60,VWS V13.00,2013-02-08 21:51:00,
2013-02-08 16:56:00,52.1,46.5,29.84,West,263,7.0,12.0,81,0.00,,SKC,0.60,VWS V13.00,2013-02-08 21:56:00,
2013-02-08 17:01:00,51.9,46.3,29.84,WNW,282,4.0,12.0,81,0.00,,SKC,0.60,VWS V13.00,2013-02-08 22:01:00,
2013-02-08 17:06:00,51.9,46.3,29.85,WNW,296,5.0,10.0,81,0.00,,SKC,0.60,VWS V13.00,2013-02-08 22:06:00,
2013-02-08 17:11:00,51.8,46.2,29.85,WNW,302,4.0,13.0,81,0.00,,SKC,0.60,VWS V13.00,2013-02-08 22:11:00,
2013-02-08 17:16:00,51.7,46.4,29.85,WNW,287,4.0,12.0,82,0.00,,SKC,0.60,VWS V13.00,2013-02-08 22:16:00,
2013-02-08 17:21:00,51.6,46.3,29.85,West,270,4.0,8.0,82,0.00,,SKC,0.60,VWS V13.00,2013-02-08 22:21:00,
2013-02-08 17:26:00,51.5,46.2,29.86,WNW,291,4.0,10.0,82,0.00,,SKC,0.60,VWS V13.00,2013-02-08 22:26:00,
2013-02-08 17:31:00,51.4,45.8,29.86,WNW,292,7.0,7.0,81,0.00,,SKC,0.60,VWS V13.00,2013-02-08 22:31:00,
2013-02-08 17:36:00,51.3,45.7,29.86,West,277,3.0,9.0,81,0.00,,SKC,0.60,VWS V13.00,2013-02-08 22:36:00,
2013-02-08 17:41:00,51.2,45.6,29.86,West,260,2.0,7.0,81,0.00,,SKC,0.60,VWS V13.00,2013-02-08 22:41:00,
2013-02-08 17:46:00,51.0,45.4,29.86,NW,304,2.0,5.0,81,0.00,,SKC,0.60,VWS V13.00,2013-02-08 22:46:00,
2013-02-08 17:51:00,50.9,45.6,29.86,WNW,289,3.0,9.0,82,0.00,,SKC,0.60,VWS V13.00,2013-02-08 22:51:00,
2013-02-08 17:56:00,50.7,45.1,29.86,West,271,4.0,7.0,81,0.00,,SKC,0.60,VWS V13.00,2013-02-08 22:56:00,
2013-02-08 18:01:00,50.6,45.0,29.87,West,275,0.0,5.0,81,0.00,,SKC,0.60,VWS V13.00,2013-02-08 23:01:00,
2013-02-08 18:06:00,50.4,45.1,29.87,West,259,2.0,5.0,82,0.00,,SKC,0.60,VWS V13.00,2013-02-08 23:06:00,
2013-02-08 18:11:00,50.3,45.0,29.87,WSW,254,0.0,6.0,82,0.00,,SKC,0.60,VWS V13.00,2013-02-08 23:11:00,
2013-02-08 18:16:00,50.2,44.9,29.87,WSW,253,3.0,6.0,82,0.00,,SKC,0.60,VWS V13.00,2013-02-08 23:16:00,
2013-02-08 18:21:00,50.1,44.8,29.87,WSW,244,4.0,7.0,82,0.00,,SKC,0.60,VWS V13.00,2013-02-08 23:21:00,
2013-02-08 18:26:00,50.1,44.8,29.88,WSW,244,4.0,9.0,82,0.00,,SKC,0.60,VWS V13.00,2013-02-08 23:26:00,
2013-02-08 18:31:00,50.1,44.8,29.88,West,267,4.0,5.0,82,0.00,,SKC,0.60,VWS V13.00,2013-02-08 23:31:00,
2013-02-08 18:36:00,50.0,44.7,29.88,WSW,248,3.0,6.0,82,0.00,,SKC,0.60,VWS V13.00,2013-02-08 23:36:00,
2013-02-08 18:41:00,49.9,44.6,29.88,West,260,2.0,5.0,82,0.00,,SKC,0.60,VWS V13.00,2013-02-08 23:41:00,
2013-02-08 18:46:00,49.8,44.5,29.88,West,263,5.0,7.0,82,0.00,,SKC,0.60,VWS V13.00,2013-02-08 23:46:00,
2013-02-08 18:51:00,49.7,44.4,29.88,WSW,240,5.0,6.0,82,0.00,,SKC,0.60,VWS V13.00,2013-02-08 23:51:00,
2013-02-08 18:56:00,49.6,44.3,29.89,West,261,3.0,6.0,82,0.00,,SKC,0.60,VWS V13.00,2013-02-08 23:56:00,
2013-02-08 19:01:00,49.5,44.2,29.89,WSW,252,1.0,5.0,82,0.00,,SKC,0.60,VWS V13.00,2013-02-09 00:01:00,
2013-02-08 19:06:00,49.4,44.1,29.89,West,261,2.0,5.0,82,0.00,,SKC,0.60,VWS V13.00,2013-02-09 00:06:00,
2013-02-08 19:11:00,49.2,44.0,29.89,West,260,0.0,4.0,82,0.00,,SKC,0.60,VWS V13.00,2013-02-09 00:11:00,
2013-02-08 19:16:00,49.1,43.8,29.89,West,272,1.0,2.0,82,0.00,,SKC,0.60,VWS V13.00,2013-02-09 00:16:00,
2013-02-08 19:21:00,48.9,43.7,29.89,West,273,0.0,2.0,82,0.00,,SKC,0.60,VWS V13.00,2013-02-09 00:21:00,
2013-02-08 19:26:00,48.7,43.5,29.89,West,275,0.0,2.0,82,0.00,,SKC,0.60,VWS V13.00,2013-02-09 00:26:00,
2013-02-08 19:31:00,48.5,43.3,29.89,WSW,252,2.0,5.0,82,0.00,,SKC,0.60,VWS V13.00,2013-02-09 00:31:00,
2013-02-08 19:36:00,48.4,43.2,29.89,WSW,246,4.0,5.0,82,0.00,,SKC,0.60,VWS V13.00,2013-02-09 00:36:00,
2013-02-08 19:41:00,48.4,43.2,29.90,WNW,282,0.0,5.0,82,0.00,,SKC,0.60,VWS V13.00,2013-02-09 00:41:00,
2013-02-08 19:46:00,48.4,43.2,29.90,West,273,1.0,6.0,82,0.00,,SKC,0.60,VWS V13.00,2013-02-09 00:46:00,
2013-02-08 19:51:00,48.6,43.4,29.90,West,263,3.0,6.0,82,0.00,,SKC,0.60,VWS V13.00,2013-02-09 00:51:00,
2013-02-08 19:56:00,48.8,43.6,29.90,West,262,5.0,6.0,82,0.00,,SKC,0.60,VWS V13.00,2013-02-09 00:56:00,
2013-02-08 20:01:00,48.9,43.7,29.90,West,264,2.0,5.0,82,0.00,,SKC,0.60,VWS V13.00,2013-02-09 01:01:00,
2013-02-08 20:06:00,49.0,43.8,29.90,West,267,3.0,5.0,82,0.00,,SKC,0.60,VWS V13.00,2013-02-09 01:06:00,
2013-02-08 20:11:00,49.0,43.8,29.91,West,264,2.0,6.0,82,0.00,,SKC,0.60,VWS V13.00,2013-02-09 01:11:00,
2013-02-08 20:16:00,49.0,43.8,29.91,West,265,4.0,7.0,82,0.00,,SKC,0.60,VWS V13.00,2013-02-09 01:16:00,
2013-02-08 20:21:00,49.0,43.8,29.91,West,273,5.0,7.0,82,0.00,,SKC,0.60,VWS V13.00,2013-02-09 01:21:00,
2013-02-08 20:26:00,49.1,43.8,29.91,WSW,250,4.0,7.0,82,0.00,,SKC,0.60,VWS V13.00,2013-02-09 01:26:00,
2013-02-08 20:31:00,49.1,43.8,29.91,WSW,254,2.0,7.0,82,0.00,,SKC,0.60,VWS V13.00,2013-02-09 01:31:00,
2013-02-08 20:36:00,49.2,44.0,29.91,West,259,2.0,7.0,82,0.00,,SKC,0.60,VWS V13.00,2013-02-09 01:36:00,
2013-02-08 20:41:00,49.2,44.0,29.91,WSW,257,4.0,6.0,82,0.00,,SKC,0.60,VWS V13.00,2013-02-09 01:41:00,
2013-02-08 20:46:00,49.1,43.8,29.91,SW,228,5.0,7.0,82,0.00,,SKC,0.60,VWS V13.00,2013-02-09 01:46:00,
2013-02-08 20:51:00,49.1,43.8,29.92,West,261,2.0,7.0,82,0.00,,SKC,0.60,VWS V13.00,2013-02-09 01:51:00,
2013-02-08 20:56:00,49.0,43.8,29.92,West,274,3.0,6.0,82,0.00,,SKC,0.60,VWS V13.00,2013-02-09 01:56:00,
2013-02-08 21:01:00,49.0,43.8,29.92,West,273,3.0,9.0,82,0.00,,SKC,0.60,VWS V13.00,2013-02-09 02:01:00,
2013-02-08 21:06:00,49.1,43.8,29.92,WNW,290,5.0,8.0,82,0.00,,SKC,0.60,VWS V13.00,2013-02-09 02:06:00,
2013-02-08 21:11:00,49.1,43.8,29.93,WSW,256,4.0,8.0,82,0.00,,SKC,0.60,VWS V13.00,2013-02-09 02:11:00,
2013-02-08 21:16:00,49.1,43.8,29.93,West,267,3.0,8.0,82,0.00,,SKC,0.60,VWS V13.00,2013-02-09 02:16:00,
2013-02-08 21:21:00,49.1,43.8,29.93,WNW,291,2.0,10.0,82,0.00,,SKC,0.60,VWS V13.00,2013-02-09 02:21:00,
2013-02-08 21:26:00,49.2,44.0,29.93,West,277,4.0,6.0,82,0.00,,SKC,0.60,VWS V13.00,2013-02-09 02:26:00,
2013-02-08 21:31:00,49.2,44.0,29.93,West,276,3.0,9.0,82,0.00,,SKC,0.60,VWS V13.00,2013-02-09 02:31:00,
2013-02-08 21:36:00,49.1,43.8,29.93,West,263,4.0,9.0,82,0.00,,SKC,0.60,VWS V13.00,2013-02-09 02:36:00,
2013-02-08 21:41:00,49.1,43.8,29.93,West,265,6.0,7.0,82,0.00,,SKC,0.60,VWS V13.00,2013-02-09 02:41:00,
2013-02-08 21:46:00,49.1,43.8,29.93,WNW,290,4.0,7.0,82,0.00,,SKC,0.60,VWS V13.00,2013-02-09 02:46:00,
2013-02-08 21:51:00,49.1,43.8,29.93,West,266,3.0,10.0,82,0.00,,SKC,0.60,VWS V13.00,2013-02-09 02:51:00,
2013-02-08 21:56:00,49.1,43.8,29.93,WSW,252,3.0,8.0,82,0.00,,SKC,0.60,VWS V13.00,2013-02-09 02:56:00,
2013-02-08 22:01:00,49.0,43.8,29.93,West,259,1.0,8.0,82,0.00,,SKC,0.60,VWS V13.00,2013-02-09 03:01:00,
2013-02-08 22:06:00,49.0,43.8,29.93,West,259,6.0,8.0,82,0.00,,SKC,0.60,VWS V13.00,2013-02-09 03:06:00,
2013-02-08 22:11:00,48.9,43.7,29.93,WNW,289,5.0,8.0,82,0.00,,SKC,0.60,VWS V13.00,2013-02-09 03:11:00,
2013-02-08 22:16:00,48.9,43.7,29.94,West,275,5.0,10.0,82,0.00,,SKC,0.60,VWS V13.00,2013-02-09 03:16:00,
2013-02-08 22:21:00,49.0,43.8,29.94,West,272,9.0,9.0,82,0.00,,SKC,0.60,VWS V13.00,2013-02-09 03:21:00,
2013-02-08 22:26:00,49.1,43.8,29.94,WNW,284,5.0,14.0,82,0.00,,SKC,0.60,VWS V13.00,2013-02-09 03:26:00,
2013-02-08 22:31:00,49.3,44.0,29.95,West,266,4.0,16.0,82,0.00,,SKC,0.60,VWS V13.00,2013-02-09 03:31:00,
2013-02-08 22:36:00,49.5,44.2,29.95,NW,317,5.0,13.0,82,0.00,,SKC,0.60,VWS V13.00,2013-02-09 03:36:00,
2013-02-08 22:41:00,49.6,44.3,29.95,NNW,333,3.0,14.0,82,0.00,,SKC,0.60,VWS V13.00,2013-02-09 03:41:00,
2013-02-08 22:46:00,49.6,44.3,29.96,WNW,303,8.0,12.0,82,0.00,,SKC,0.60,VWS V13.00,2013-02-09 03:46:00,
2013-02-08 22:51:00,49.5,44.2,29.96,NW,306,12.0,12.0,82,0.00,,SKC,0.60,VWS V13.00,2013-02-09 03:51:00,
2013-02-08 22:56:00,49.5,44.2,29.96,NW,321,6.0,6.0,82,0.00,,SKC,0.60,VWS V13.00,2013-02-09 03:56:00,
2013-02-08 23:01:00,49.4,44.1,29.96,NW,317,5.0,16.0,82,0.00,,SKC,0.60,VWS V13.00,2013-02-09 04:01:00,
2013-02-08 23:06:00,49.2,44.0,29.96,NNW,340,8.0,8.0,82,0.00,,SKC,0.60,VWS V13.00,2013-02-09 04:06:00,
2013-02-08 23:11:00,49.0,43.8,29.97,NNW,334,9.0,9.0,82,0.00,,SKC,0.60,VWS V13.00,2013-02-09 04:11:00,
2013-02-08 23:16:00,48.8,43.6,29.97,NW,319,10.0,19.0,82,0.00,,SKC,0.60,VWS V13.00,2013-02-09 04:16:00,
2013-02-08 23:21:00,48.6,43.4,29.97,WNW,298,9.0,10.0,82,0.00,,SKC,0.60,VWS V13.00,2013-02-09 04:21:00,
2013-02-08 23:27:00,48.3,43.1,29.98,NW,318,4.0,8.0,82,0.00,,SKC,0.60,VWS V13.00,2013-02-09 04:27:00,
2013-02-08 23:32:00,48.1,42.5,29.98,NNW,329,8.0,8.0,81,0.00,,SKC,0.60,VWS V13.00,2013-02-09 04:32:00,
2013-02-08 23:37:00,47.9,42.4,29.99,NW,319,6.0,6.0,81,0.00,,SKC,0.60,VWS V13.00,2013-02-09 04:37:00,
2013-02-08 23:42:00,47.7,42.2,29.99,WNW,296,7.0,12.0,81,0.00,,SKC,0.60,VWS V13.00,2013-02-09 04:42:00,
2013-02-08 23:47:00,47.5,42.0,29.99,NW,315,16.0,16.0,81,0.00,,SKC,0.60,VWS V13.00,2013-02-09 04:47:00,
2013-02-08 23:52:00,47.4,41.9,30.00,NW,313,2.0,5.0,81,0.00,,SKC,0.60,VWS V13.00,2013-02-09 04:52:00,
2013-02-08 23:57:00,47.2,41.7,30.00,NNW,334,10.0,14.0,81,0.00,,SKC,0.60,VWS V13.00,2013-02-09 04:57:00,